Theta_e
322 322 322 320 322 322 322 321 322 322 322 322 322 322 322 322 321 321 321 322 323 323 324 325 328 329 329 330 330 329 330 325 322 322 322 325 334 339 340 341 338 338 336 331 328 327 323 323 325 328 326 323 320 316 320 317 320 321 308 305 302 305 304 309 308 310 313 310 307 308 308 307 305 309 311 313 311 310 311 309 311 316 318 324 327 332 332 331
320 321 321 321 320 322 322 321 321 322 322 322 322 321 322 322 322 322 321 322 323 323 324 325 326 328 328 329 329 329 327 324 320 319 319 331 336 340 341 341 338 338 335 326 327 327 325 323 323 326 323 319 327 315 318 315 318 309 307 306 302 306 308 313 312 313 312 311 311 309 309 309 308 308 309 305 306 306 306 309 308 311 319 322 327 330 330 329
319 320 321 321 321 320 322 322 321 320 322 322 322 322 322 323 323 323 323 323 324 324 324 325 326 326 327 328 328 329 326 320 318 314 321 334 337 341 341 342 339 338 329 325 329 330 328 327 328 325 321 318 319 313 315 312 314 311 307 303 305 310 311 313 314 314 316 314 312 312 309 309 310 309 310 306 304 306 304 304 305 308 313 319 324 328 328 328
318 319 320 321 321 319 321 322 321 320 321 321 322 322 323 323 323 324 324 324 324 324 324 324 324 325 328 328 329 327 323 316 308 315 323 333 335 337 342 341 341 340 336 331 330 330 333 330 328 324 319 317 322 320 311 313 310 311 307 304 307 312 309 312 314 315 315 316 314 312 308 308 309 310 308 307 303 304 306 308 308 307 309 319 322 326 327 327
317 318 319 320 320 320 320 322 321 321 320 320 321 321 322 323 323 323 324 323 323 323 323 324 324 325 328 328 327 326 317 301 304 315 321 334 335 336 339 341 340 338 336 334 333 332 331 327 324 322 317 314 318 317 314 313 314 312 307 310 310 311 309 313 314 314 313 312 312 312 307 307 311 309 308 306 302 301 306 309 310 310 311 320 320 324 327 326
316 317 319 320 320 320 320 321 322 322 321 320 320 321 322 322 323 323 323 323 322 323 323 323 323 324 328 328 327 322 310 287 320 322 332 334 335 336 337 340 339 337 335 331 330 330 326 325 324 316 316 314 314 312 315 315 315 305 309 310 311 312 310 313 314 311 312 313 311 310 312 312 309 307 308 307 306 308 311 311 312 311 313 319 323 324 325 326
315 316 318 319 319 320 319 319 322 321 320 321 320 321 321 321 322 323 323 322 322 322 322 323 323 325 325 327 323 317 309 306 325 330 337 336 335 335 336 338 337 336 333 329 329 325 324 321 320 316 315 314 314 314 316 315 315 310 306 310 311 312 311 313 313 311 312 312 311 313 313 310 308 304 309 307 310 311 311 312 311 314 321 322 322 324 324 326
315 315 317 318 318 319 320 319 321 320 321 321 320 320 321 321 321 322 323 323 321 322 322 323 324 324 325 321 312 305 307 306 318 332 331 335 334 333 335 336 334 333 330 327 327 324 323 319 317 319 314 311 312 313 316 315 316 310 308 311 311 312 313 313 313 311 311 311 312 312 307 306 308 308 310 309 311 312 312 311 312 314 318 322 323 322 323 324
314 314 316 317 318 318 319 320 320 319 320 319 320 320 320 321 321 322 322 323 322 321 321 323 323 324 326 316 307 301 300 313 321 320 327 334 332 332 334 330 333 330 329 329 329 326 323 319 319 319 311 313 315 311 315 313 308 312 310 312 311 311 312 313 312 311 311 315 311 309 307 309 311 311 307 309 311 313 314 311 311 313 314 320 322 322 322 322
313 314 315 316 317 318 319 319 320 320 319 320 319 320 320 321 321 322 322 323 322 322 322 322 323 324 319 311 306 296 305 320 322 319 320 330 330 332 331 331 330 328 326 327 327 325 322 321 320 322 320 314 313 310 312 310 308 309 310 311 309 309 311 313 312 312 311 309 310 308 307 308 311 308 303 311 313 314 314 311 311 311 311 314 318 322 321 322
314 314 314 315 317 317 318 319 319 319 319 319 320 319 319 321 321 321 322 322 322 322 322 321 323 322 312 311 300 295 320 323 316 317 320 323 328 328 328 329 330 327 326 326 325 327 326 325 324 318 318 312 314 312 311 310 311 311 309 308 308 309 310 311 312 313 310 308 309 309 307 308 310 307 305 311 313 312 312 314 312 311 310 312 314 317 320 320
313 313 313 315 316 318 319 320 320 320 320 319 320 319 318 320 321 321 321 322 322 322 321 321 323 318 313 307 300 301 326 323 323 324 324 322 322 327 330 329 330 328 326 323 325 327 328 325 321 317 310 315 307 310 310 314 314 309 310 303 305 307 307 310 309 311 309 307 308 308 305 303 306 303 306 309 313 310 310 310 312 310 311 311 312 313 317 318
312 312 313 315 316 317 317 319 320 320 318 318 320 319 318 319 321 321 322 321 322 322 322 321 322 318 309 300 303 311 318 322 325 323 325 324 322 328 333 332 330 330 328 325 324 327 329 322 322 315 318 313 309 305 312 313 311 310 309 305 303 304 303 309 311 311 310 309 310 307 295 299 303 307 310 310 310 310 310 309 309 309 310 311 311 312 316 318
312 312 314 314 315 315 317 317 319 319 319 319 319 318 318 319 320 321 321 321 322 322 322 322 320 314 307 300 309 315 315 314 319 319 320 324 321 323 330 331 329 328 326 323 325 327 327 322 322 319 317 314 308 314 310 309 310 305 307 307 300 298 299 308 309 310 308 310 309 309 296 299 305 308 311 312 311 309 308 309 309 310 310 310 310 310 313 318
312 312 313 313 313 315 316 317 316 318 319 319 319 318 318 317 319 319 321 320 321 322 321 322 317 309 301 301 313 317 326 321 314 315 321 322 319 319 321 328 327 326 328 327 326 327 326 322 318 313 310 313 314 309 303 305 305 304 300 296 300 298 300 306 311 310 306 309 310 307 296 299 304 308 312 313 312 310 308 309 308 310 311 310 310 310 311 314
311 312 313 312 313 313 316 316 318 319 318 318 318 317 317 318 318 319 320 320 321 321 321 311 310 307 299 295 306 327 316 309 308 315 319 323 322 317 323 324 327 326 325 324 326 324 323 320 313 312 309 310 310 306 303 301 301 302 300 297 297 299 300 303 308 311 311 310 309 306 296 302 303 308 311 313 313 310 308 309 310 310 311 312 309 309 310 311
311 311 312 312 313 314 315 316 316 317 317 318 317 316 317 317 317 318 318 318 319 319 315 306 308 309 293 309 315 306 306 309 316 313 313 317 319 323 322 321 320 318 321 321 323 321 319 315 314 312 313 307 306 306 299 296 296 297 300 297 299 298 300 298 307 310 310 309 306 305 300 301 304 308 310 311 312 311 307 308 310 310 310 311 309 309 310 311
311 311 312 311 312 313 315 315 315 316 315 317 316 316 315 317 317 316 314 315 316 313 312 312 309 301 296 306 297 301 310 309 311 311 311 314 318 323 322 318 319 317 316 314 317 313 315 309 311 303 305 304 304 302 295 291 295 295 296 295 297 299 301 300 300 306 308 308 306 302 300 301 304 307 309 310 312 310 307 308 309 309 309 310 310 309 309 311
311 311 311 311 311 311 315 315 315 317 317 317 318 317 317 317 314 312 308 306 302 297 294 296 297 286 285 295 303 309 310 313 313 310 307 310 315 322 322 321 318 313 307 307 307 310 310 307 305 301 297 299 300 301 299 299 301 299 300 298 298 296 298 299 303 308 307 305 302 302 301 303 304 305 307 309 310 310 310 308 308 309 309 310 310 310 309 309
311 311 311 312 312 312 313 314 315 316 317 314 313 311 309 303 301 299 305 304 300 299 299 300 301 301 303 306 303 306 319 315 306 307 309 312 312 316 315 314 312 313 307 302 304 307 309 299 295 295 298 301 303 303 303 303 303 303 302 300 299 299 300 303 304 310 308 304 302 302 303 303 305 306 307 308 308 308 309 309 309 309 310 310 310 311 311 310
310 310 311 311 311 312 313 314 315 314 314 313 311 304 296 297 291 288 297 300 303 304 301 302 302 299 301 307 312 304 301 306 309 306 308 314 312 313 307 308 305 301 304 306 304 309 307 297 297 300 302 303 303 304 304 303 304 301 300 299 298 299 297 302 302 307 310 302 300 303 302 303 305 307 308 310 309 308 308 309 310 309 310 311 311 311 312 312
310 310 310 311 311 312 313 314 314 314 315 312 308 302 304 303 305 309 303 291 299 303 303 303 305 302 307 310 313 308 308 303 303 306 312 312 310 304 305 305 302 299 305 306 304 300 297 295 300 303 305 305 305 304 304 303 301 301 299 298 297 298 300 302 303 305 306 303 299 302 301 302 304 306 308 308 309 310 311 310 310 310 310 311 311 311 312 312
309 310 310 311 312 312 313 314 314 314 311 307 302 304 303 308 313 310 305 297 294 302 301 301 300 301 301 310 311 314 302 300 298 305 309 311 308 304 305 302 301 302 303 303 297 296 293 297 301 305 305 303 303 304 303 302 302 299 299 296 295 299 296 292 301 304 305 304 300 301 300 302 305 306 307 309 309 310 311 312 312 312 310 310 311 312 312 312
309 309 310 310 311 312 313 313 314 311 308 307 306 306 310 311 310 306 299 290 289 296 300 301 303 301 300 300 309 308 301 301 303 301 314 309 303 305 302 302 300 300 299 301 300 298 296 301 305 305 304 302 300 301 301 299 297 300 299 298 297 297 298 297 298 302 304 305 305 302 299 299 302 301 303 307 309 309 310 311 312 312 313 312 312 312 313 313
309 309 310 310 310 312 312 313 306 305 308 308 306 310 311 310 310 305 297 291 292 292 304 302 306 304 304 312 312 302 304 306 303 309 312 309 304 302 298 306 302 296 298 301 301 299 299 305 307 303 302 302 300 298 299 299 296 298 301 300 299 299 298 298 300 298 296 295 301 300 291 292 299 300 301 305 306 306 309 309 310 310 311 312 312 311 312 314
308 308 310 310 311 312 313 303 303 307 305 301 307 309 310 309 309 306 295 284 280 290 297 288 305 296 311 303 306 303 305 296 306 309 312 310 312 304 301 297 302 294 299 300 299 299 300 305 305 301 301 300 300 298 300 301 296 295 296 302 301 300 299 298 297 297 290 288 297 303 291 287 297 298 301 303 304 305 307 307 309 310 311 312 312 313 313 313
308 308 309 310 311 311 303 296 308 307 298 302 310 309 308 308 310 303 290 278 277 290 287 297 296 297 306 303 303 303 286 289 307 311 311 313 306 311 297 294 299 301 303 303 298 292 301 301 302 302 301 298 297 296 300 301 296 293 301 301 301 299 297 297 297 296 293 298 299 301 298 290 290 296 302 303 302 303 305 307 308 309 310 311 312 313 313 313
308 309 309 310 310 310 303 307 305 300 301 308 310 309 307 308 308 303 288 271 270 295 287 294 296 310 303 304 303 294 294 303 293 301 312 313 310 305 300 295 294 296 300 299 285 300 301 298 299 298 299 297 296 298 301 302 297 297 302 303 300 299 298 299 297 295 295 293 289 294 298 290 289 296 302 303 300 301 302 304 306 309 310 311 312 313 312 313
308 308 309 310 310 310 308 306 304 300 306 310 308 308 308 308 303 290 279 270 285 289 306 291 310 300 300 303 298 297 295 301 292 301 310 312 313 305 296 299 298 297 300 299 292 297 302 301 301 300 298 295 299 301 302 302 297 301 302 303 302 302 301 300 295 294 293 291 286 291 296 288 289 294 296 300 299 299 301 304 306 308 309 310 311 312 313 313
308 308 309 309 308 306 305 308 303 306 310 309 308 307 308 303 293 281 274 266 291 279 293 294 293 290 296 293 293 296 292 296 301 304 307 302 305 307 305 309 301 297 295 300 298 299 303 306 307 302 299 301 301 302 303 302 302 305 301 299 298 297 296 297 294 292 288 284 287 293 295 293 286 292 294 295 297 300 302 304 306 307 309 310 311 312 313 313
308 308 308 309 304 304 303 298 305 310 309 308 307 306 302 294 281 275 269 276 289 287 295 291 288 296 291 290 287 294 293 295 295 301 297 302 299 303 301 298 302 296 293 294 294 297 299 301 300 302 305 303 304 300 303 303 302 301 296 294 293 290 292 289 287 289 283 283 290 294 294 295 285 289 296 300 303 303 303 303 305 306 308 309 310 312 312 313
308 309 309 306 306 307 299 297 307 309 308 307 305 298 292 276 281 272 270 294 276 284 286 286 291 291 291 293 290 290 289 292 295 296 294 293 294 293 294 289 293 285 284 287 286 295 293 295 300 301 304 302 299 297 297 300 300 297 296 294 286 281 283 281 286 282 283 283 289 294 295 291 290 294 297 300 302 304 304 305 306 307 308 309 310 311 312 312
308 309 309 309 307 305 305 308 310 308 308 305 299 293 282 276 269 278 279 283 277 289 286 292 288 290 290 289 287 291 293 286 293 295 296 295 293 293 297 294 295 290 281 287 286 288 289 296 297 298 300 303 301 293 292 292 296 295 292 290 285 281 280 278 281 283 284 288 292 292 295 289 294 297 301 301 303 305 305 306 307 307 308 309 309 309 310 311
308 308 306 306 308 306 307 311 309 308 304 301 292 285 282 274 272 285 280 281 283 291 292 289 290 291 290 285 287 291 286 291 290 291 295 291 291 288 292 294 296 292 290 288 284 285 281 283 290 295 291 302 299 298 297 295 295 294 297 293 288 286 282 278 280 278 279 283 287 292 287 284 288 292 302 303 305 305 306 307 307 306 307 307 308 308 309 309
308 306 307 307 306 307 308 309 308 306 302 295 287 282 274 274 280 277 278 282 288 289 288 292 288 287 286 288 290 292 291 285 291 290 290 290 286 288 288 290 294 295 293 285 287 286 284 285 294 299 299 301 297 300 301 298 295 297 297 296 290 287 290 284 285 283 282 282 283 286 285 290 294 301 303 304 303 304 305 306 306 306 307 307 307 307 307 308
305 303 304 302 304 306 309 309 308 305 298 289 283 278 275 279 276 282 280 290 291 287 288 289 288 285 284 285 289 288 293 288 288 288 287 289 291 288 292 293 293 295 290 285 288 282 286 283 296 297 300 299 299 301 300 301 285 293 294 288 291 298 293 285 286 285 285 285 282 289 289 294 300 301 302 303 303 303 304 305 305 305 306 306 307 308 307 309
301 302 296 299 302 307 309 309 306 302 295 288 282 277 282 282 287 285 289 288 290 291 288 280 282 282 281 281 284 286 288 291 288 287 282 289 286 291 291 292 297 295 296 293 288 292 284 284 294 295 293 299 302 301 301 300 299 294 288 292 297 299 294 287 281 282 282 279 281 287 285 288 288 286 300 300 300 301 303 304 305 306 306 306 307 308 309 309
298 298 299 299 303 307 309 308 305 298 292 286 281 284 285 282 289 288 290 292 291 291 286 283 283 287 281 282 282 285 289 285 286 286 282 287 282 293 291 291 296 296 297 298 290 290 293 282 289 296 296 298 301 300 297 300 301 295 292 300 291 283 285 288 285 279 278 278 280 284 286 286 291 291 296 295 298 300 302 304 304 305 305 306 307 308 309 310
299 296 290 299 307 309 307 307 301 294 287 283 282 282 283 285 290 288 290 294 294 290 285 286 282 283 285 282 284 287 288 282 287 284 282 284 280 290 290 293 292 297 298 297 292 292 293 283 285 296 295 297 298 296 286 292 298 299 299 295 296 293 288 286 286 286 285 279 281 281 285 283 292 293 297 298 300 301 302 302 303 305 306 307 307 308 309 309
295 290 289 302 307 308 307 303 294 289 285 281 283 283 287 284 287 291 292 294 290 288 286 286 286 283 284 284 287 284 287 286 286 285 285 287 284 293 289 293 291 294 297 298 294 296 288 290 281 289 297 297 288 293 289 292 290 292 293 290 291 290 293 291 289 286 283 281 281 280 280 285 294 299 299 299 302 303 303 303 304 305 306 307 308 309 309 309
297 291 291 305 306 307 303 296 286 283 283 285 285 283 284 283 287 289 292 295 293 292 291 289 287 283 284 284 284 289 286 286 286 285 286 286 286 282 291 292 293 292 296 296 293 293 287 286 283 286 286 288 291 297 296 295 295 293 292 290 292 289 285 283 280 289 287 284 280 281 279 287 295 302 301 302 303 304 305 304 305 305 306 307 308 308 308 309
292 284 289 304 306 304 296 284 285 287 286 283 283 284 284 291 285 288 290 294 292 290 289 291 290 287 285 284 286 287 287 286 286 285 286 284 288 288 292 295 293 294 293 290 291 295 292 290 286 284 286 290 294 298 299 299 298 297 295 292 294 292 290 285 281 284 286 287 287 286 283 285 297 301 301 301 302 303 305 304 305 305 306 307 308 308 308 309
290 287 301 304 304 301 290 284 286 285 284 286 288 287 290 290 287 289 288 291 288 291 290 289 289 286 285 285 283 284 288 285 287 285 287 287 288 290 295 294 295 293 294 291 294 294 295 285 283 285 288 290 293 295 296 297 296 293 295 296 294 290 291 289 287 288 285 286 285 285 283 286 297 298 301 303 302 303 304 304 305 306 307 307 307 307 307 308
291 291 294 302 304 299 288 280 280 283 284 285 286 286 291 288 289 286 286 290 286 287 288 289 290 290 286 290 287 281 287 281 288 288 286 289 288 295 295 295 296 292 292 291 290 295 286 286 285 281 281 283 286 289 289 290 293 289 290 294 295 294 294 293 291 289 285 285 286 285 280 286 296 301 302 302 301 300 302 303 305 304 305 306 307 308 308 308
293 296 296 296 301 296 286 287 284 284 284 283 284 283 285 287 290 289 290 288 293 288 288 287 291 292 288 287 283 284 286 284 281 289 289 289 289 295 296 296 296 292 295 297 296 298 289 287 284 278 275 274 274 276 279 283 286 289 292 293 295 293 292 291 286 287 283 287 288 286 285 292 297 298 300 301 301 300 300 299 302 302 303 306 306 306 306 305
287 283 287 291 293 292 287 289 288 286 284 284 282 284 285 284 289 291 288 290 293 290 288 290 292 292 289 286 280 280 281 285 282 282 287 286 289 292 296 296 296 294 295 297 297 295 285 289 287 284 281 279 282 285 291 292 289 285 288 290 292 295 295 293 291 287 284 288 287 289 290 292 294 297 298 299 300 301 300 300 302 302 301 303 306 304 303 303
291 284 283 281 286 286 286 287 286 287 284 287 282 285 282 284 286 288 292 284 291 288 287 289 290 287 285 286 282 279 280 280 283 281 283 288 290 291 297 297 298 298 296 294 297 291 284 285 287 287 286 286 287 287 292 294 289 289 289 289 292 292 294 292 288 285 292 288 284 291 293 291 293 296 298 299 299 298 299 299 300 300 301 301 301 303 302 301
285 285 286 287 283 280 282 283 287 286 288 288 284 286 284 284 284 282 287 291 292 291 285 286 288 288 289 286 286 279 278 278 278 281 282 287 287 290 289 294 293 296 295 294 296 290 284 283 288 288 287 288 288 288 289 290 289 290 291 291 291 293 291 289 290 293 293 287 285 292 294 292 294 296 298 300 301 301 299 300 300 301 301 302 302 301 300 299
288 286 287 289 284 285 287 287 288 287 286 287 285 286 283 283 283 286 285 286 288 287 288 281 285 287 288 289 286 280 281 277 279 281 279 280 283 286 283 288 291 295 294 292 292 292 288 285 288 289 287 288 288 288 289 287 288 289 289 289 290 290 290 292 292 294 294 292 293 293 294 294 297 298 299 301 303 301 300 300 300 299 301 302 301 299 299 299
285 285 284 288 288 286 287 287 287 287 284 287 283 284 285 284 283 285 287 287 283 285 286 283 285 288 289 288 287 283 284 285 282 275 282 284 281 285 284 286 285 290 292 288 289 286 288 284 290 286 284 284 288 289 289 288 287 285 287 289 290 290 289 289 287 288 288 289 291 293 292 292 299 302 302 303 304 304 301 300 300 300 300 300 299 299 299 302
288 289 291 287 283 286 287 287 286 285 284 285 283 285 286 285 284 287 286 290 286 285 286 284 287 288 289 289 288 286 289 288 288 288 288 287 282 286 284 283 289 285 289 287 288 290 289 285 287 284 282 282 286 287 288 289 288 287 286 286 287 288 286 288 287 289 287 286 288 288 288 290 298 301 302 302 303 303 303 301 298 299 299 299 298 299 299 300
290 294 293 291 284 288 285 287 287 285 281 285 285 286 285 285 288 288 284 290 291 291 288 288 288 287 285 286 286 288 291 291 291 291 292 291 291 289 290 289 290 288 286 287 291 286 287 285 283 284 280 281 286 287 286 286 285 282 284 287 288 289 290 291 291 292 290 291 287 285 288 295 298 301 300 300 301 302 303 303 301 300 299 299 299 300 301 301
Wind_Speed
20 20 21 24 21 21 25 26 24 22 21 20 20 19 18 18 18 16 15 15 14 13 12 9 7 8 9 9 8 7 4 6 6 10 14 12 6 13 1 7 9 9 3 3 8 8 7 8 8 8 6 3 3 5 3 4 2 2 3 3 6 5 6 4 7 4 3 1 5 3 3 2 4 2 1 1 1 2 4 2 4 4 5 10 7 10 11 10
21 21 22 23 26 23 24 27 26 24 22 21 21 20 19 18 17 17 16 15 14 13 12 12 10 7 6 7 7 5 5 6 11 13 21 6 14 5 11 8 8 8 3 5 9 9 8 7 9 8 6 6 3 4 6 2 4 4 2 4 7 6 6 6 5 7 4 1 6 7 3 1 1 8 3 2 3 4 3 3 3 5 8 6 8 12 12 11
23 21 21 21 23 25 21 23 26 26 22 21 21 20 19 17 16 15 15 14 13 14 13 13 12 9 6 5 5 3 5 8 11 20 19 14 10 5 11 11 10 7 6 6 7 7 7 6 9 6 6 6 5 5 5 4 6 6 4 5 8 7 8 9 6 6 5 3 4 2 4 1 2 5 3 2 3 7 7 4 4 6 8 9 9 11 11 11
23 23 22 22 22 24 23 23 23 28 25 22 22 20 18 16 16 15 14 14 14 14 13 13 12 10 6 6 3 4 5 7 15 14 11 17 18 10 7 11 10 8 7 8 9 8 5 5 8 11 6 8 2 5 6 4 3 4 7 7 6 7 9 10 12 10 6 3 3 2 4 1 2 2 3 2 3 4 6 6 8 10 8 12 12 11 11 11
24 24 23 22 21 23 25 22 24 25 26 25 22 21 18 17 16 16 16 16 16 15 13 12 12 10 7 6 5 2 6 3 6 12 14 18 21 19 12 11 11 8 9 8 9 6 3 4 2 9 10 6 4 6 9 6 7 4 8 9 11 10 9 9 4 8 8 8 2 1 2 3 1 4 4 4 4 3 1 4 9 8 9 14 13 12 11 12
24 24 23 21 22 23 25 26 24 25 26 27 24 21 19 18 17 16 17 17 16 15 14 13 12 10 7 6 5 6 6 9 2 5 7 18 23 24 18 12 11 10 9 11 11 5 3 2 6 4 7 7 7 7 5 10 7 8 6 8 9 10 11 7 6 4 4 2 1 3 3 2 3 3 4 4 6 5 2 5 5 2 8 16 15 14 12 12
25 24 23 22 22 23 23 26 24 27 26 23 24 22 21 20 18 17 16 17 16 15 14 13 12 9 8 5 6 8 11 9 3 4 7 17 24 25 22 16 10 9 10 10 11 10 7 8 10 10 6 10 9 9 10 10 7 9 7 7 12 10 11 8 9 6 1 2 4 3 5 3 1 5 3 6 6 8 1 3 4 5 9 13 13 13 14 14
25 24 23 22 21 21 22 24 22 24 24 24 24 24 22 21 19 18 16 16 16 15 14 13 12 11 8 6 7 9 12 17 14 7 9 12 19 20 23 16 14 10 11 14 13 12 9 12 10 7 7 7 4 11 8 10 11 11 11 8 8 8 8 10 10 4 5 3 3 5 3 3 3 4 3 5 5 8 4 3 4 4 5 9 9 9 10 11
25 25 24 23 21 22 22 23 22 25 25 27 25 24 23 21 19 18 17 15 15 15 15 13 13 10 10 5 8 9 17 17 6 14 7 2 9 12 16 14 16 13 10 10 13 11 9 7 10 7 4 10 1 6 4 2 7 10 8 7 8 11 10 11 5 6 1 1 3 6 7 6 6 5 7 6 6 4 1 4 4 4 5 7 9 10 9 10
25 25 25 24 23 22 23 21 24 24 24 24 23 24 25 22 20 18 17 16 15 15 15 14 13 13 11 7 7 12 13 5 7 14 10 4 7 12 16 11 17 15 12 12 10 10 11 5 9 2 2 3 2 3 4 5 3 6 8 12 12 13 13 11 12 8 5 4 4 8 8 7 6 5 7 6 7 8 8 5 5 6 7 7 7 9 8 10
26 26 25 25 24 23 24 23 24 25 26 26 25 26 24 21 19 19 17 17 16 15 16 15 12 11 11 8 11 16 5 5 9 8 9 9 4 11 15 13 15 15 16 11 11 10 7 6 7 4 2 2 2 4 4 3 2 7 9 9 12 12 12 10 12 13 3 4 6 6 8 6 6 4 12 4 3 1 7 10 8 7 5 6 7 8 8 8
27 27 26 26 24 23 24 24 25 25 24 27 25 24 24 21 19 18 18 17 17 16 16 15 14 9 8 10 13 11 3 3 4 4 5 10 8 10 11 12 13 13 14 13 12 7 6 3 9 8 5 6 3 4 7 1 4 4 8 9 10 11 12 10 10 11 5 5 3 3 8 11 7 12 11 5 6 3 4 4 7 8 7 6 7 7 7 8
27 27 27 26 25 22 23 24 25 23 26 27 24 23 23 21 20 19 18 17 17 17 15 15 11 6 7 12 16 12 8 4 4 7 8 5 7 7 9 8 8 12 11 11 11 10 8 8 9 13 3 7 9 5 2 4 2 1 5 6 11 11 14 12 9 10 10 5 5 4 9 9 11 14 11 7 9 7 7 7 6 5 8 7 6 6 7 7
27 26 25 26 25 24 23 25 24 25 25 27 26 23 24 22 21 20 19 18 17 17 15 16 9 8 9 12 7 7 13 14 6 5 6 6 9 7 8 8 4 3 6 5 4 6 0 5 7 4 3 0 3 3 7 5 4 3 2 2 5 7 13 7 7 7 13 6 9 7 13 8 5 9 13 12 10 12 14 13 11 9 7 8 7 7 8 9
28 25 25 26 25 23 23 25 26 26 26 26 23 24 20 20 21 22 21 17 18 16 15 12 8 7 10 9 7 10 3 1 7 6 5 8 7 5 9 8 10 11 3 1 0 3 5 8 5 5 2 2 3 5 4 3 3 2 1 7 7 10 12 5 7 10 14 5 11 8 12 10 8 8 5 4 10 14 13 12 9 9 9 7 8 8 8 9
27 24 26 27 25 24 23 23 25 25 27 25 26 24 20 18 19 21 22 17 18 18 10 10 8 9 5 9 3 5 7 10 13 10 8 4 4 8 5 7 4 5 5 3 4 4 6 10 6 4 6 2 5 5 5 4 3 4 9 7 8 9 13 9 12 10 10 8 11 15 6 3 6 8 11 14 14 9 14 10 10 11 11 10 7 8 8 7
24 25 27 26 26 25 24 22 25 26 26 26 26 28 21 18 21 23 22 19 13 9 9 5 6 7 7 1 4 5 10 11 5 8 11 9 5 4 7 6 6 6 6 4 5 8 5 8 4 3 1 4 7 7 6 8 7 8 7 11 8 12 7 9 7 10 8 10 8 10 11 10 6 11 9 6 6 9 9 10 10 10 8 9 7 7 8 9
23 23 27 28 28 25 24 23 26 26 26 23 23 19 19 21 20 17 18 12 5 5 5 4 4 5 12 12 9 9 10 9 10 8 12 8 7 2 5 7 5 10 10 5 2 12 6 6 7 6 7 8 8 7 11 14 16 12 9 8 9 9 13 10 5 2 5 12 16 9 14 11 9 10 11 14 14 6 6 8 7 6 6 7 6 7 8 9
24 24 27 27 27 26 23 24 27 25 24 26 24 21 20 21 13 8 10 9 10 8 7 8 10 13 8 17 18 5 7 8 9 12 12 11 7 3 1 1 9 13 9 8 5 8 5 4 5 6 11 11 14 14 16 16 9 11 10 11 9 9 8 11 9 8 1 8 7 11 13 10 9 11 12 11 10 12 9 7 6 5 5 5 6 6 6 7
25 27 27 27 27 26 23 24 25 26 27 22 18 14 11 10 8 7 6 7 11 15 9 17 13 6 5 5 8 13 2 11 10 12 10 10 8 8 6 3 8 10 11 12 11 13 8 10 11 13 13 16 17 18 15 14 9 8 10 9 9 9 9 5 9 4 3 3 12 9 10 10 11 9 10 10 10 12 14 11 10 9 7 6 6 6 6 7
25 28 27 26 26 25 23 25 27 26 32 18 17 16 12 15 14 7 11 13 13 13 7 11 17 17 3 3 2 17 10 6 6 9 12 7 7 7 7 6 10 13 14 12 11 7 12 13 13 13 16 14 16 15 15 13 13 14 10 10 11 11 10 7 5 6 2 5 4 6 10 11 10 10 11 11 11 13 12 13 14 11 10 10 10 11 9 7
27 27 28 27 27 26 26 25 24 25 30 17 16 16 5 16 4 3 15 11 12 11 9 7 11 13 7 4 5 10 8 8 8 9 6 11 8 12 7 9 14 14 12 12 8 11 13 15 14 18 16 13 12 15 14 15 14 14 11 8 10 11 6 6 6 3 3 2 6 5 11 13 12 13 12 11 13 12 11 10 10 11 13 11 11 11 11 9
27 27 28 28 27 26 27 26 26 26 19 18 19 17 10 12 4 13 5 4 9 11 13 10 14 15 15 3 3 3 9 11 11 12 11 12 11 15 10 10 13 14 15 15 12 12 14 14 19 17 16 16 14 15 14 14 13 10 10 11 12 6 7 5 7 3 4 5 3 3 10 12 11 12 16 17 18 12 10 12 15 12 10 13 13 11 10 10
27 26 27 28 27 26 26 26 26 22 20 18 18 21 9 11 9 18 14 7 9 14 14 10 10 12 14 9 3 3 7 7 7 13 7 12 12 9 10 13 13 12 13 16 17 14 16 9 18 15 15 17 17 15 15 13 12 12 14 12 11 12 10 8 2 5 3 5 6 7 12 13 11 12 10 10 13 15 15 14 13 12 11 7 8 10 11 12
26 27 26 24 27 25 23 23 18 15 14 19 20 15 13 13 8 17 11 6 3 6 9 5 3 4 6 4 1 4 3 1 6 8 10 12 12 10 13 5 7 12 13 16 17 15 15 4 6 13 15 16 15 16 16 12 12 12 14 15 12 10 11 9 6 6 4 7 8 4 7 15 9 13 14 11 11 17 15 16 17 13 11 12 11 10 10 10
25 25 24 27 28 25 22 14 12 12 19 20 16 12 12 12 7 10 7 2 7 6 11 13 6 9 4 6 7 3 3 4 4 4 12 11 8 8 5 11 6 12 14 15 14 7 10 8 13 17 14 14 17 16 15 15 12 12 12 12 15 14 9 6 5 3 7 10 2 10 11 16 6 9 11 11 14 18 14 16 17 14 15 15 14 13 12 12
25 26 27 28 27 26 13 8 8 13 19 16 12 16 15 12 8 12 3 3 5 9 14 7 10 2 7 8 11 6 7 6 4 4 11 10 12 5 10 10 6 5 6 4 3 9 5 10 5 11 15 14 13 15 13 16 11 13 6 11 13 14 14 11 9 8 6 3 4 2 4 11 13 11 8 6 9 11 15 16 14 13 14 15 15 15 14 14
25 25 26 27 29 26 10 7 14 17 16 11 16 16 18 13 11 7 3 6 5 13 10 8 5 1 4 11 13 13 4 9 9 9 10 8 7 7 8 11 14 12 10 8 17 4 16 14 14 11 12 14 16 14 14 16 13 4 2 4 9 10 9 7 8 7 6 5 12 10 8 10 15 13 7 9 13 14 14 10 10 14 15 14 15 15 14 14
25 26 27 27 26 27 15 9 13 19 15 12 16 18 15 13 11 7 4 4 5 5 5 10 3 3 6 12 14 11 9 4 5 10 9 4 3 3 10 11 10 15 11 10 8 4 2 11 15 15 11 11 11 14 10 10 10 4 7 4 1 2 2 1 3 5 5 6 14 13 8 10 19 17 7 9 16 18 15 14 16 14 9 11 14 14 14 14
25 24 25 26 21 15 16 12 11 14 12 17 18 19 16 14 8 8 6 5 5 6 9 5 12 12 14 14 12 14 13 5 0 7 11 10 9 2 3 3 2 8 10 9 10 7 2 5 1 7 13 11 9 11 10 12 10 6 4 4 3 4 2 3 1 0 2 11 15 15 12 13 18 19 10 11 14 13 12 12 11 9 12 11 9 12 14 14
25 25 26 26 14 10 11 14 11 13 16 17 17 15 15 7 8 9 9 5 6 4 6 10 9 15 17 17 12 13 13 8 5 10 10 7 9 6 3 3 3 2 2 5 7 10 10 4 2 3 3 3 5 7 10 8 6 10 4 5 4 1 3 2 1 1 8 12 12 16 15 17 18 22 10 13 12 13 15 14 10 12 13 13 10 10 10 11
22 24 27 19 11 9 15 12 10 12 19 19 21 15 12 9 2 7 7 6 6 10 14 11 13 16 19 18 11 15 14 11 7 11 11 9 10 14 12 8 10 9 9 7 9 4 12 13 5 5 4 12 8 5 4 5 5 7 7 6 8 2 3 6 4 10 13 13 8 10 15 13 23 25 7 6 11 15 17 13 13 11 12 13 12 13 12 10
22 23 26 17 14 12 13 8 14 16 19 22 15 13 8 10 13 4 3 8 3 14 9 15 19 20 20 18 12 14 12 13 10 8 9 9 10 11 11 12 9 11 6 12 10 10 8 8 11 7 3 8 8 11 8 6 10 9 10 10 9 9 8 11 10 5 8 12 11 13 9 15 8 18 16 23 23 15 11 16 17 17 14 12 10 9 9 10
22 22 15 13 13 11 9 9 12 21 18 18 16 9 8 10 8 6 11 6 6 8 12 12 12 10 14 13 13 12 11 8 12 9 11 8 10 9 10 12 10 8 2 4 12 10 9 11 12 12 9 9 10 10 13 11 14 17 13 15 13 11 6 12 8 13 13 12 10 10 4 4 8 12 7 20 21 20 20 17 10 9 9 8 8 8 8 8
18 14 11 11 12 10 9 12 14 24 17 13 13 15 12 7 5 13 6 6 5 10 14 15 16 16 14 12 9 12 9 8 10 10 11 10 9 9 10 11 13 6 4 6 5 5 16 10 5 20 7 15 16 13 9 5 5 9 7 4 8 14 3 11 6 5 3 1 3 6 7 5 9 15 10 6 6 11 17 21 20 20 15 10 8 8 8 7
13 8 12 10 12 11 12 13 16 17 21 13 12 6 13 11 11 5 9 6 10 12 17 15 12 12 11 10 9 14 14 5 13 8 8 10 9 11 8 7 13 15 9 11 5 8 5 13 7 13 16 15 16 13 11 12 10 8 7 10 12 9 13 3 7 4 4 7 10 2 7 5 8 17 12 13 17 11 7 15 19 21 21 19 17 13 9 9
9 8 8 8 11 12 16 16 16 13 18 15 13 10 8 2 1 14 9 11 13 19 18 15 10 11 12 12 12 16 14 8 12 11 8 10 10 11 10 7 10 15 15 10 7 2 5 6 10 10 15 11 15 15 12 14 4 4 11 10 2 9 7 3 9 2 7 11 9 5 14 7 3 12 8 20 13 6 11 11 14 17 15 17 16 13 13 11
7 6 6 9 11 14 15 18 18 13 13 13 13 10 4 5 7 9 5 10 13 14 13 12 5 8 9 9 9 14 11 12 12 12 7 14 4 13 13 10 13 14 18 14 7 4 3 3 3 12 15 12 10 10 12 12 13 10 3 6 10 1 7 5 0 11 9 11 8 13 17 15 9 16 6 2 10 11 11 11 12 14 14 15 14 14 13 12
7 8 4 7 12 15 16 16 15 15 12 11 12 7 2 0 10 11 12 10 11 16 12 7 11 6 10 12 10 12 14 12 13 11 9 8 7 13 16 10 11 16 17 16 11 1 3 7 4 7 12 9 9 10 13 11 13 10 4 8 6 3 9 9 11 4 6 11 5 17 13 13 10 16 18 16 16 10 11 10 14 15 14 13 13 12 12 12
7 6 4 11 14 15 16 16 12 11 10 12 15 5 8 6 9 12 12 12 8 10 8 12 8 8 9 7 12 12 13 14 11 8 8 7 10 7 16 15 7 15 16 18 11 8 1 2 9 3 9 11 11 9 14 15 13 12 10 9 5 6 1 5 5 11 8 8 13 10 15 5 10 13 19 19 20 15 10 12 11 12 12 13 12 14 15 14
5 3 1 14 18 16 17 11 10 9 9 1 2 4 11 6 7 10 14 12 2 6 4 8 12 11 8 10 9 10 8 11 11 10 10 8 14 6 11 15 12 12 13 14 14 10 5 4 10 4 3 10 6 10 17 16 14 14 14 15 15 14 7 12 10 5 9 10 7 8 18 6 3 8 12 16 19 15 16 13 13 13 13 12 14 17 14 12
6 5 2 17 16 19 17 10 3 6 4 10 9 6 7 3 6 14 12 10 3 3 4 6 8 6 7 7 9 10 8 10 10 8 8 9 13 9 7 15 15 10 12 12 14 14 11 6 7 12 8 8 10 7 5 5 7 14 15 14 14 10 7 7 12 9 3 10 6 10 11 12 1 8 5 4 5 7 11 12 11 12 14 15 17 16 13 12
6 2 4 21 19 20 12 11 9 4 3 2 8 2 2 3 7 10 12 7 4 1 3 4 9 7 4 4 7 6 11 6 13 12 8 11 6 13 4 19 14 12 9 5 7 4 4 1 3 10 7 6 5 2 7 6 2 7 12 13 13 15 15 14 13 12 12 8 10 9 14 12 9 5 8 8 9 8 8 8 10 10 11 15 15 10 8 7
4 3 6 15 21 18 14 9 8 7 5 6 7 6 4 1 6 10 6 9 4 6 6 5 7 4 6 4 4 5 8 5 10 10 7 9 8 13 10 11 16 10 11 8 10 11 6 6 8 7 6 5 8 8 6 1 1 3 4 12 14 12 15 14 10 6 11 12 12 10 18 10 9 10 14 12 11 10 9 7 10 8 8 10 10 8 8 7
3 2 2 11 16 15 15 5 13 11 10 14 11 11 8 1 2 1 7 8 2 4 6 3 6 9 5 4 2 2 2 3 3 12 4 4 4 8 10 9 14 9 11 9 13 10 9 6 11 13 15 14 12 13 15 14 11 6 5 9 12 17 18 12 15 10 14 11 15 13 13 12 8 6 12 16 17 15 8 3 2 3 5 3 4 3 3 4
2 6 1 4 8 12 3 2 3 9 12 12 11 9 11 7 4 2 3 2 1 4 3 6 8 10 8 6 4 5 6 1 2 2 7 2 1 2 3 10 10 7 9 11 11 12 3 6 11 13 14 16 13 2 2 2 4 10 7 15 17 18 20 18 12 14 17 12 16 16 15 11 15 17 17 12 13 19 12 1 0 0 1 2 3 5 5 5
2 0 3 2 4 3 6 3 6 6 9 13 10 10 12 8 8 5 6 2 3 4 2 6 8 11 6 11 6 4 1 2 1 2 1 1 1 1 7 6 4 4 8 5 5 3 2 8 12 16 20 18 16 11 4 5 6 6 14 14 15 16 18 20 16 17 13 12 18 12 14 14 22 22 20 15 8 5 6 5 2 2 3 5 4 2 3 2
2 0 3 1 2 7 7 4 10 9 8 11 3 7 13 15 13 9 4 2 5 3 5 1 8 11 16 16 11 6 5 4 3 6 2 1 1 2 3 1 0 4 6 1 8 6 4 4 7 10 15 17 18 17 13 4 4 4 6 6 11 17 17 19 18 19 17 14 19 16 15 18 22 25 21 15 13 11 7 6 5 5 4 3 3 5 6 6
2 2 1 2 2 3 6 16 18 14 14 14 4 12 11 15 16 11 7 8 8 7 7 8 13 12 13 10 10 6 8 6 10 6 4 2 3 0 1 1 3 1 2 3 1 2 1 7 7 7 11 13 15 16 15 18 14 10 10 8 7 7 11 14 14 15 20 20 17 16 13 19 21 23 16 11 12 10 7 6 6 5 7 8 6 6 6 5
2 2 2 1 3 4 7 10 11 13 12 16 7 10 12 15 15 9 4 9 8 9 5 5 8 11 12 13 11 10 15 13 4 4 3 4 1 4 2 3 1 1 4 4 4 2 1 4 8 5 7 13 15 13 15 17 17 21 20 17 15 14 14 14 11 13 12 12 13 15 16 18 18 16 12 7 8 8 9 10 8 8 7 8 7 6 3 1
2 1 1 3 5 5 7 8 10 13 11 9 5 9 8 14 14 11 6 5 10 11 11 11 10 8 8 11 11 10 8 8 4 6 8 8 6 4 3 2 6 3 3 1 2 4 8 4 1 3 9 12 12 13 15 15 16 19 19 19 17 17 17 17 15 12 10 12 13 13 14 14 19 22 11 9 10 13 14 11 8 6 6 5 5 4 3 4
2 1 1 2 2 6 8 9 7 7 10 12 11 14 11 18 12 13 6 4 2 2 6 7 11 8 4 6 12 12 7 7 7 4 7 10 8 5 10 5 5 6 2 4 3 3 6 2 2 4 11 13 13 9 12 13 13 17 20 17 17 17 17 17 15 11 12 10 12 12 14 15 16 11 11 14 16 17 15 14 8 7 5 6 5 6 6 5
Wind_Direction
254 250 246 249 245 237 245 237 235 233 231 231 232 230 229 228 228 227 229 229 229 227 235 250 247 238 241 250 251 260 272 248 239 228 229 231 218 213 258 180 160 174 186 264 258 246 225 212 214 214 225 207 182 223 223 232 241 166 205 218 249 253 240 239 248 250 320 248 131 175 186 216 141 168 120 22 123 302 124 225 130 86 70 109 121 124 121 124
258 254 251 245 245 234 235 241 235 232 228 230 230 230 228 226 225 224 225 227 226 223 227 235 244 237 236 245 248 260 250 248 247 244 235 192 222 242 180 170 170 185 139 235 248 228 241 227 217 202 217 217 150 232 167 211 190 213 225 223 242 229 247 270 291 297 273 278 132 137 220 256 234 154 155 159 199 206 199 200 171 151 115 113 129 125 135 141
257 255 249 247 245 243 230 236 241 232 229 226 226 228 227 224 223 220 220 221 221 221 219 223 228 235 235 231 244 246 275 259 258 246 242 217 225 185 186 170 183 176 186 231 244 243 269 305 335 289 202 242 188 217 170 214 183 202 246 229 233 247 270 266 260 293 331 23 317 328 150 174 128 140 104 225 219 177 214 187 200 189 159 150 147 144 144 154
256 254 250 247 245 244 236 231 239 237 229 225 225 224 223 223 220 217 218 217 219 220 220 223 229 232 220 220 197 236 256 286 259 253 235 202 215 217 188 182 185 187 221 246 261 276 39 19 326 295 250 219 233 287 196 201 203 168 219 232 244 236 236 238 259 268 240 276 286 319 86 165 232 113 152 178 263 230 207 216 191 198 179 162 160 157 154 157
255 254 252 247 245 242 241 232 234 239 233 227 223 223 221 220 218 214 215 217 219 220 219 218 221 223 215 207 205 184 230 267 266 222 209 201 187 206 198 186 180 189 211 231 250 249 94 114 116 283 265 230 190 229 244 214 204 260 221 218 244 263 276 285 300 7 6 38 39 303 153 219 122 135 174 218 214 235 227 227 206 185 191 158 161 168 160 163
254 252 248 245 242 243 240 236 228 228 235 230 226 221 219 219 217 214 215 218 215 215 216 213 213 212 201 190 208 212 195 216 23 19 310 184 177 195 191 179 175 197 201 222 231 205 170 227 190 232 261 227 213 217 213 244 190 232 241 255 241 244 258 275 295 58 347 344 268 251 238 261 195 194 187 212 237 256 81 48 20 181 186 162 164 159 166 168
252 250 249 244 241 241 238 236 232 231 229 230 229 222 218 218 217 214 213 216 214 213 211 209 207 197 195 167 221 224 222 269 49 353 346 166 182 184 179 173 163 193 206 213 221 216 199 209 200 205 217 266 244 223 226 240 249 248 241 219 246 262 267 271 283 104 165 239 277 290 321 273 175 228 177 213 225 253 232 84 83 35 50 125 149 165 170 175
250 248 247 244 238 233 235 234 231 229 231 225 231 226 219 215 214 213 209 210 212 210 209 204 200 196 163 189 196 224 233 233 228 118 88 200 190 177 169 167 175 184 202 209 209 216 199 209 207 193 224 214 240 247 211 217 260 252 240 245 265 267 250 244 250 227 161 233 267 294 288 260 262 253 265 248 230 212 231 118 113 93 98 130 145 167 177 180
249 248 245 243 237 233 229 229 228 229 227 229 219 229 220 215 210 209 206 203 204 208 209 202 197 190 181 200 211 235 234 234 264 290 347 67 189 173 164 171 173 180 198 214 217 208 208 205 208 214 234 205 278 299 324 31 262 270 285 318 286 255 267 278 289 289 279 253 255 264 247 247 253 286 264 252 257 275 233 148 149 143 148 162 164 177 179 186
247 245 243 243 236 231 228 222 226 227 230 227 228 223 221 213 208 205 202 199 198 202 205 202 199 186 182 193 216 237 256 261 229 255 281 35 176 162 184 182 176 178 194 205 216 209 204 173 195 101 96 181 126 246 34 225 301 326 299 285 294 296 277 263 267 243 233 217 229 240 243 242 235 202 251 206 228 234 238 198 180 172 179 185 178 177 186 186
244 243 241 241 240 231 229 224 224 224 223 225 221 226 219 211 204 200 198 196 194 196 200 200 194 186 194 195 204 228 41 235 216 236 238 257 180 185 188 199 182 185 193 200 216 215 213 206 145 71 332 218 167 223 255 183 3 334 329 301 286 288 283 275 261 257 200 237 218 245 255 253 250 194 235 213 208 278 222 221 198 184 196 193 194 182 185 190
242 242 239 238 237 230 223 221 220 220 221 222 219 220 220 209 201 195 193 193 192 192 196 197 190 195 206 207 219 222 127 261 18 347 228 223 223 202 199 208 189 195 192 197 206 212 229 150 146 158 199 133 189 18 267 18 73 288 328 331 310 291 273 253 250 254 174 230 197 208 260 247 226 232 231 217 249 235 285 265 217 182 194 207 200 192 179 192
241 241 237 236 234 228 224 221 217 214 214 221 216 217 223 211 199 191 189 191 191 189 191 187 185 205 202 221 228 227 269 303 70 339 333 220 215 198 191 215 222 201 202 206 197 200 214 154 162 184 170 162 141 187 139 129 113 279 304 301 313 288 269 252 258 257 230 194 212 138 262 233 222 235 242 197 221 240 242 236 239 204 192 201 205 196 188 186
239 238 235 235 233 228 226 224 221 217 214 215 217 214 217 213 198 187 186 189 187 188 186 185 186 194 219 242 235 214 253 267 291 317 306 279 206 191 187 179 226 322 64 51 22 28 179 165 168 168 0 329 178 71 154 102 149 179 156 287 259 287 255 253 232 239 247 180 198 185 250 252 238 217 227 221 209 209 225 224 216 217 205 192 199 201 194 194
239 233 231 234 231 227 226 222 222 218 216 211 207 211 211 212 202 188 182 186 185 183 184 178 195 181 220 249 265 264 288 318 259 258 274 267 214 200 194 166 177 215 231 186 96 85 88 59 63 145 175 242 146 165 110 162 126 146 142 236 245 244 261 289 267 220 232 188 193 195 250 249 251 253 273 260 213 212 225 228 219 222 222 202 190 201 200 201
237 231 234 230 231 229 226 220 217 214 214 207 205 207 203 202 208 190 180 181 179 178 170 190 202 213 223 241 247 138 186 207 226 220 239 283 259 225 182 194 127 130 145 232 159 120 150 153 186 159 136 150 176 163 160 126 190 184 209 235 217 220 257 274 246 272 255 235 194 195 240 131 225 227 229 234 257 213 219 229 224 219 226 227 197 193 205 206
237 232 228 231 225 225 225 219 218 216 213 207 205 206 200 198 205 193 180 176 173 172 167 172 186 214 221 91 71 212 187 204 193 196 233 235 258 251 195 144 159 133 135 195 172 137 141 150 109 142 221 174 171 173 179 204 210 204 194 230 217 231 239 247 267 237 248 271 236 200 232 244 286 295 294 294 239 229 211 228 233 222 218 225 208 194 195 204
234 228 232 232 230 224 221 218 219 215 211 207 203 190 195 193 199 189 186 169 108 115 87 346 163 145 267 267 225 201 184 195 180 187 219 212 223 200 241 180 148 134 133 126 157 164 188 163 177 180 150 191 186 185 194 206 205 203 189 216 226 226 235 253 252 231 259 234 241 213 227 237 238 248 253 270 276 284 223 227 234 232 227 225 213 206 199 197
231 228 225 225 230 226 216 218 218 205 202 201 193 181 188 186 185 198 177 148 137 129 176 187 172 189 201 226 222 242 181 166 171 184 203 211 202 137 320 206 147 145 163 160 192 164 171 124 167 186 187 184 197 195 202 215 196 206 197 214 220 222 219 226 240 260 169 336 259 221 241 248 235 225 250 246 257 256 254 237 243 243 245 241 229 224 216 206
230 226 224 221 222 225 216 213 217 210 201 201 187 176 176 178 162 179 168 191 197 184 178 172 191 224 25 43 178 200 284 152 181 189 192 202 196 162 171 231 172 170 169 193 149 198 152 183 183 194 201 197 197 201 208 218 213 210 220 227 227 230 238 212 212 126 161 166 254 273 280 274 259 251 238 234 235 240 244 238 222 223 232 242 254 246 233 221
234 231 226 226 223 221 215 215 217 209 208 190 181 185 200 167 157 182 154 198 199 197 173 175 191 199 137 1 343 172 186 176 187 176 201 158 202 161 190 180 179 189 193 185 171 146 179 202 203 198 204 198 198 197 209 220 220 229 228 221 230 227 239 223 239 129 233 164 255 254 276 270 280 276 264 269 258 246 234 236 242 228 218 225 228 235 239 241
227 226 224 217 222 220 217 214 215 210 201 189 186 197 179 174 119 141 147 177 217 205 211 186 192 235 286 6 340 145 154 161 187 176 175 169 171 193 172 197 189 197 177 191 155 175 196 211 203 205 203 206 203 202 208 216 222 226 231 233 235 229 235 235 242 204 141 205 253 254 261 265 265 272 282 266 252 249 242 241 239 230 222 228 222 223 229 231
224 224 222 219 218 218 218 214 210 206 198 188 188 198 195 158 109 118 130 118 195 197 200 189 186 211 235 248 350 28 169 170 177 175 174 181 165 206 168 200 202 197 193 189 189 163 206 215 215 202 199 202 199 196 201 215 230 230 222 233 234 220 211 229 213 185 213 205 270 233 256 261 256 249 250 260 271 271 258 239 240 239 223 214 216 212 217 222
227 222 220 217 219 216 216 214 209 206 206 187 185 194 160 148 141 152 170 178 177 190 202 202 189 204 224 199 197 213 186 177 173 179 164 182 183 177 212 207 212 208 205 192 198 196 212 203 210 203 197 199 204 200 200 209 222 221 229 232 237 237 233 242 188 196 190 253 260 268 273 267 242 247 245 245 258 263 261 264 249 236 240 234 214 216 211 218
225 222 218 216 215 213 213 213 211 207 192 197 193 188 150 145 177 165 160 148 154 207 180 245 213 240 221 137 252 211 206 285 207 160 171 188 175 162 209 196 208 221 214 206 208 215 221 212 165 197 191 199 207 208 204 203 224 226 224 227 238 234 237 239 238 261 245 247 208 220 285 263 241 236 237 233 237 249 248 248 248 236 234 236 237 223 218 219
223 220 215 217 216 211 203 212 210 191 195 200 188 160 155 150 143 186 198 191 182 162 146 209 135 226 160 199 146 203 174 239 198 161 165 195 189 185 151 217 189 213 210 204 207 220 214 192 190 195 191 192 203 214 205 198 220 223 216 210 229 239 240 228 238 200 240 242 207 176 234 275 230 229 216 218 223 237 241 237 243 238 236 235 234 230 225 221
219 220 214 213 213 205 197 215 155 184 193 199 175 152 151 158 169 193 159 333 232 173 167 155 166 230 177 161 151 156 214 224 145 137 178 180 193 184 204 197 192 241 218 183 210 220 177 208 213 188 193 199 203 211 198 193 205 229 192 199 205 222 226 231 230 228 261 298 280 272 230 266 276 237 240 253 261 239 234 239 240 237 235 235 234 233 229 225
219 218 216 214 214 201 203 185 174 192 197 166 149 158 153 162 174 193 239 171 244 134 172 155 209 118 208 145 157 179 221 135 166 186 185 178 190 188 225 199 205 202 201 174 217 120 188 199 200 203 193 198 206 205 200 196 204 225 244 185 209 207 217 222 226 244 245 264 260 240 233 273 265 255 216 229 249 253 259 254 236 231 231 229 229 232 232 231
217 216 215 213 213 204 205 209 183 192 190 140 150 149 151 161 185 184 194 189 243 96 128 143 104 117 132 162 169 186 217 146 179 154 157 159 191 110 205 221 208 214 204 207 226 204 241 204 206 211 212 207 205 210 206 195 209 182 82 97 54 56 41 215 224 235 250 231 247 241 208 253 269 261 220 206 234 242 241 241 251 258 244 227 225 224 227 231
214 214 213 212 210 202 206 205 214 185 152 150 153 148 145 154 163 194 184 237 149 165 190 140 178 173 161 169 174 182 199 197 304 132 155 173 173 74 311 326 262 225 213 202 226 241 258 273 28 205 203 205 206 202 193 200 206 96 131 145 113 69 95 49 60 43 327 241 239 244 219 225 268 259 224 216 229 236 240 242 241 235 247 248 226 220 223 227
212 212 212 207 202 189 191 212 203 166 147 148 141 139 135 148 181 168 190 185 107 141 110 169 167 146 169 167 178 187 196 186 156 163 167 161 170 194 178 227 29 332 282 213 232 234 255 275 221 182 171 229 229 216 191 200 200 127 199 171 117 257 34 8 358 146 239 249 234 233 225 214 243 265 221 234 239 233 235 240 225 224 229 238 241 236 228 224
213 211 209 206 198 172 191 200 172 158 146 148 141 147 148 139 282 201 164 153 143 173 162 152 167 171 167 181 168 176 184 194 170 180 170 170 169 183 199 195 157 193 220 193 224 201 232 226 185 275 190 188 200 181 290 185 134 170 147 137 154 212 107 239 159 231 221 237 219 212 212 226 229 252 247 250 222 223 230 238 232 218 219 225 232 234 233 226
212 212 207 202 181 199 199 175 150 154 149 146 139 142 148 165 179 189 121 164 206 162 184 163 171 174 177 169 186 173 188 197 169 190 162 173 174 203 198 199 184 192 187 195 208 193 236 213 204 205 135 208 201 187 161 198 174 176 186 170 172 206 212 238 222 235 255 240 231 233 189 234 251 269 237 246 244 242 235 230 233 239 237 225 218 225 224 224
214 210 206 195 191 191 181 159 166 143 153 143 137 142 149 178 176 148 164 193 152 160 135 157 150 154 166 180 184 164 178 213 187 180 171 174 187 190 206 214 207 210 275 171 208 194 218 218 214 178 218 160 213 212 188 185 176 198 193 190 198 194 188 213 211 219 222 240 231 219 207 225 156 240 162 228 238 229 230 235 230 218 214 207 212 219 222 221
201 215 211 184 194 185 167 159 166 150 140 139 148 160 163 161 138 158 159 199 147 151 146 152 149 160 178 188 180 178 177 184 199 179 185 173 194 201 190 195 205 199 199 219 191 196 224 254 152 191 184 173 197 203 202 155 181 203 199 174 208 218 188 241 206 223 237 322 279 179 204 188 209 268 256 306 261 231 222 228 232 239 239 239 240 224 221 222
195 203 202 194 179 181 159 164 161 158 137 148 153 171 173 167 163 180 175 182 155 151 146 144 154 160 164 181 184 191 187 179 178 194 197 195 189 201 194 185 193 187 182 204 162 207 181 231 162 192 190 189 192 189 197 157 194 188 190 208 211 211 217 275 309 248 309 278 249 320 293 314 336 278 260 251 253 248 217 213 221 229 232 235 242 234 224 227
190 168 206 201 190 164 163 158 160 157 143 157 162 169 177 214 308 166 167 170 159 139 143 150 170 163 172 182 188 188 179 187 176 186 196 184 214 200 196 207 177 190 204 182 226 257 214 241 193 171 204 203 190 196 197 204 206 123 209 208 142 55 68 186 235 239 236 250 260 230 250 246 191 279 175 221 235 196 221 215 217 220 216 218 223 219 221 224
169 180 171 193 187 164 158 156 153 154 154 161 179 160 165 169 148 165 164 143 144 155 150 148 143 167 163 163 189 182 167 186 169 178 205 177 259 176 199 200 191 194 195 199 214 192 135 287 229 186 185 195 187 185 214 226 212 210 212 149 184 104 210 201 326 235 234 237 255 241 248 243 201 252 283 261 224 216 216 219 217 219 213 212 215 220 221 221
160 162 189 192 155 158 155 148 150 153 162 171 181 159 154 294 164 174 181 173 159 150 146 172 144 199 158 175 171 180 164 190 168 187 180 177 210 178 199 185 198 194 192 186 207 213 179 220 227 182 189 167 182 175 212 206 216 209 65 191 179 169 213 195 201 255 230 247 238 257 238 241 196 244 251 251 253 234 216 214 216 215 209 210 218 224 225 224
157 163 218 155 159 153 146 144 137 160 170 180 179 193 150 160 179 180 184 169 160 161 175 147 147 128 161 175 169 174 177 185 168 182 198 156 215 164 195 192 195 188 189 186 203 178 261 181 244 168 187 152 209 183 204 198 189 199 200 211 194 209 31 202 197 204 215 232 229 262 260 205 203 218 235 237 242 240 231 214 212 213 210 211 216 221 224 224
161 174 184 155 155 151 140 132 146 175 170 101 31 124 157 157 163 173 189 195 104 6 134 146 153 160 157 151 178 178 163 183 186 192 187 177 184 189 194 189 195 192 179 182 199 191 193 180 220 187 224 204 201 192 206 202 191 202 195 212 203 191 191 193 226 188 219 224 228 225 251 256 246 198 229 228 238 234 237 230 210 206 206 211 225 231 227 224
144 185 195 159 142 147 144 136 173 167 175 176 176 158 161 220 164 173 179 190 167 142 355 123 148 133 146 168 164 167 158 184 193 198 187 204 192 211 167 195 195 190 176 185 194 189 191 189 203 226 209 217 215 218 226 245 225 206 196 216 206 209 195 213 232 208 214 241 252 254 293 253 358 285 312 281 279 255 236 225 207 199 202 211 225 229 223 214
173 182 122 153 152 148 143 156 148 163 155 141 91 142 169 161 158 171 168 185 155 162 102 134 156 126 170 144 170 161 163 179 188 201 185 200 210 194 194 184 187 199 180 186 184 217 110 208 190 261 276 262 278 310 311 297 67 310 241 218 204 209 201 211 218 211 225 215 226 240 245 266 240 282 293 304 306 283 258 229 202 197 202 214 221 217 213 214
135 151 147 158 157 149 158 170 152 145 131 131 130 139 168 4 160 160 186 174 165 163 150 137 119 134 144 149 145 165 169 158 198 207 200 179 215 182 206 192 181 194 184 174 190 161 185 186 196 220 247 251 262 267 258 157 357 210 227 227 224 218 217 225 241 237 246 222 229 224 247 247 242 232 252 267 286 298 268 225 191 196 197 203 203 200 195 192
117 42 157 158 158 162 175 170 160 155 155 148 141 150 157 135 340 275 175 164 121 156 127 142 132 125 137 124 93 96 215 164 138 211 249 175 209 165 198 212 182 204 196 172 179 151 202 157 184 207 214 220 216 214 221 231 214 204 206 252 245 221 216 205 225 214 240 220 225 229 247 248 258 240 242 239 253 274 304 317 321 186 178 154 144 165 170 166
194 174 178 151 148 165 32 19 164 161 151 144 145 164 156 145 152 127 115 65 32 136 98 112 112 119 129 123 119 169 200 298 126 177 204 199 209 157 178 201 192 205 201 177 165 148 203 182 198 206 219 228 234 230 315 204 160 196 193 207 220 232 222 216 214 218 224 223 234 228 239 259 262 256 258 250 233 232 250 297 235 290 120 107 145 162 183 189
57 123 153 137 56 40 131 67 135 147 164 158 151 159 168 164 151 139 203 97 205 140 114 148 151 141 169 155 170 161 120 125 340 65 218 181 155 167 47 61 12 296 219 171 120 95 114 206 203 210 222 231 235 224 218 160 181 197 208 218 208 218 225 219 213 225 212 225 241 227 230 237 248 250 245 244 258 276 250 243 256 267 238 198 212 181 168 182
189 212 30 287 195 156 117 180 167 163 159 165 129 146 158 152 161 157 175 256 149 163 121 154 170 177 164 171 147 158 165 151 137 211 143 259 5 13 354 35 104 39 45 106 156 165 165 200 229 217 234 236 235 239 232 222 167 196 211 214 206 209 217 228 225 226 221 224 235 226 214 230 246 248 248 245 252 259 253 254 223 220 243 227 170 183 190 198
65 55 45 5 334 115 177 166 165 166 161 177 135 167 163 167 172 172 158 157 167 190 176 165 189 173 167 159 160 167 153 154 227 207 146 145 185 144 270 295 288 118 68 60 77 316 181 224 224 225 245 242 244 241 240 243 244 233 214 218 223 228 236 235 242 242 236 234 236 248 244 236 241 251 249 245 246 250 244 247 258 238 222 216 203 207 224 210
147 171 102 311 22 95 101 125 156 158 168 178 162 191 173 175 175 156 158 157 167 200 184 182 168 165 163 171 176 180 189 193 117 134 181 128 130 170 221 187 44 191 173 175 143 316 252 240 212 229 250 256 252 246 241 240 241 248 245 234 230 231 237 230 230 248 265 288 288 282 271 265 262 262 260 257 255 264 259 245 230 224 206 200 201 215 231 211
19 353 358 149 131 117 104 134 157 167 166 178 190 172 178 177 182 173 173 186 182 173 181 186 146 166 172 176 187 198 173 186 136 145 149 170 208 175 142 231 171 214 174 126 100 142 158 259 205 231 239 252 246 242 245 245 241 244 247 243 240 234 240 244 233 220 223 240 249 251 261 259 265 266 276 260 256 255 262 259 250 224 210 193 197 215 219 223
300 276 9 283 130 152 136 155 152 149 186 186 177 171 183 183 172 150 140 199 200 195 174 140 155 159 186 199 209 198 153 159 176 174 161 179 192 177 181 195 162 169 170 180 149 134 166 199 207 227 247 251 249 231 240 246 251 247 238 239 237 239 234 244 247 235 218 207 233 237 246 242 257 290 295 282 260 252 252 251 251 258 230 191 194 207 216 221